Wind_Speed
28 28 23 16 12 5 13 7 28 23 34 29 31 24 22 24 30 28 26 27 16 16 19 23 26 27 28 27 28 26 29 24 33 31 31 38 40 41 40 40 37 34 34 38 39 42 38 35 36
25 20 16 5 1 13 11 24 22 31 36 24 15 16 28 30 26 27 29 24 26 23 24 27 30 33 35 35 34 33 32 30 31 34 34 42 44 44 44 45 47 46 19 13 23 28 35 39 39
14 9 5 5 15 9 17 21 26 38 21 19 18 21 19 6 19 27 29 27 29 28 30 33 33 34 34 35 36 38 36 36 30 30 33 36 41 40 44 42 47 45 40 33 29 30 24 34 38
2 3 8 18 6 20 28 34 28 23 20 17 15 19 25 30 23 25 26 29 31 33 33 36 37 40 41 41 40 40 39 34 35 28 30 34 37 35 42 42 40 37 33 34 43 40 34 30 35
7 5 9 0 19 26 24 27 25 14 15 16 16 24 25 19 24 25 28 31 34 35 37 37 38 38 39 40 39 40 38 34 34 34 37 39 42 39 39 43 41 39 38 41 41 42 54 19 20
13 25 11 10 12 11 9 12 20 22 20 13 22 25 23 19 21 25 28 30 30 30 32 34 35 36 34 31 28 28 30 31 32 34 36 37 39 41 35 37 38 38 37 37 41 37 40 45 34
17 13 7 7 19 13 10 11 15 16 16 11 20 27 22 12 29 25 26 27 30 32 33 34 34 32 30 29 28 27 26 26 27 30 31 33 35 37 37 36 38 37 36 38 40 37 37 37 33
15 10 8 3 3 16 8 11 12 14 13 11 14 19 19 13 18 21 24 24 23 23 24 26 25 21 23 25 26 26 26 26 27 29 29 29 31 34 36 37 39 39 40 40 39 39 41 38 40
23 13 7 5 4 11 9 10 9 12 14 12 11 17 21 22 20 20 20 21 20 21 22 24 25 23 24 27 24 25 26 26 28 29 30 32 36 40 40 39 41 44 45 46 47 46 45 45 41
19 7 12 7 7 10 12 8 11 11 15 17 12 17 19 22 21 20 20 22 19 21 23 25 25 25 25 25 25 24 26 29 30 32 33 34 36 38 39 40 41 43 45 47 49 49 45 44 47
12 10 5 4 5 5 6 7 7 8 11 11 12 7 8 9 10 12 14 15 13 14 14 14 16 15 15 15 14 13 14 16 18 21 23 24 25 27 28 30 28 27 31 32 31 34 37 42 47
23 18 20 18 15 13 13 12 11 11 12 13 14 12 12 12 12 11 10 11 12 12 11 11 12 12 13 15 15 15 17 17 18 20 21 23 25 27 30 32 33 32 32 33 37 33 34 37 39
14 13 10 9 8 8 7 6 6 7 8 10 11 11 11 11 10 10 11 13 13 12 12 12 13 15 17 18 19 20 22 23 25 27 28 29 31 35 36 36 36 37 36 34 33 33 33 34 35
10 8 7 5 5 6 7 8 9 8 9 10 10 10 10 11 12 11 12 13 15 15 14 16 16 19 20 21 25 26 27 30 31 32 34 35 35 36 38 40 41 40 41 40 39 37 35 34 34
8 5 4 6 7 8 9 8 7 12 11 12 13 13 14 15 15 15 14 15 17 17 17 18 19 21 23 24 27 29 31 35 36 37 39 41 42 44 44 44 44 46 45 45 45 44 43 41 39
9 10 10 15 13 10 10 12 13 15 13 11 11 12 14 17 17 16 15 18 18 20 20 22 24 24 27 29 33 34 34 38 39 41 43 46 48 50 52 52 51 51 49 47 47 48 48 47 44
14 13 11 12 14 12 12 12 12 15 17 18 16 16 14 12 12 14 18 18 21 21 22 22 23 25 26 29 32 34 36 40 43 45 45 46 49 51 53 54 55 55 54 52 50 50 49 48 48
9 10 12 12 13 15 13 11 9 11 17 19 18 18 15 14 19 15 16 21 21 23 24 26 28 30 31 33 35 38 39 44 45 48 51 50 54 56 59 61 59 58 59 58 58 57 55 51 50
5 6 6 8 10 13 15 13 12 13 16 14 12 16 16 17 18 22 20 21 24 27 29 31 34 34 35 39 41 44 46 48 50 52 55 54 57 59 64 70 71 71 67 62 61 60 60 59 56
7 6 6 9 11 11 15 16 14 15 17 15 15 16 18 19 19 21 25 26 30 33 36 38 41 43 43 45 49 50 52 54 57 59 62 62 62 62 67 67 67 69 70 71 69 66 62 59 58
12 9 8 9 11 14 12 19 23 18 18 17 18 21 21 22 24 24 25 28 32 35 38 42 45 49 51 51 55 56 56 58 60 64 66 67 68 70 69 67 67 68 68 66 68 68 67 62 59
15 14 13 12 15 15 17 12 18 28 21 20 21 22 26 28 27 29 30 34 40 40 41 44 48 49 51 54 54 57 60 60 62 65 68 71 73 74 75 71 69 68 65 64 64 64 63 63 63
15 17 17 16 16 16 18 19 18 25 29 28 30 30 31 35 36 38 39 41 43 44 47 47 51 50 52 56 58 59 60 61 64 68 72 75 74 72 71 68 65 62 63 63 64 62 61 61 62
16 16 20 21 21 19 20 19 13 17 29 34 36 41 43 41 38 38 41 42 45 50 52 52 54 53 54 57 59 61 61 63 68 71 73 72 68 67 65 62 61 58 59 61 62 62 61 59 59
16 20 21 22 23 23 27 30 28 21 29 32 42 46 46 45 47 43 46 49 51 55 55 58 58 58 57 58 59 61 64 66 70 71 72 72 68 63 61 60 59 60 65 63 60 60 58 56 55
19 24 26 28 29 28 24 32 26 33 36 45 51 50 58 57 59 56 56 56 57 59 58 57 61 64 64 64 63 66 65 68 70 70 72 66 62 60 59 57 58 60 64 65 63 60 58 56 52
24 26 29 33 34 38 36 36 32 28 34 46 47 55 61 60 60 60 60 64 64 60 63 66 63 63 63 64 66 66 69 71 73 72 68 62 62 62 58 56 56 62 65 65 63 60 55 52 50
25 29 32 37 40 44 42 38 34 34 37 39 42 47 55 59 61 63 65 67 66 64 68 67 66 64 64 65 65 67 71 75 72 68 64 63 62 60 57 56 62 64 67 64 59 56 54 54 52
31 31 35 38 39 45 48 43 40 36 41 45 51 55 58 63 66 65 65 67 67 67 66 66 66 63 61 64 69 71 72 71 67 65 63 61 59 57 56 59 61 63 60 59 57 57 58 61 64
33 32 34 41 44 44 45 45 35 41 48 53 54 59 62 62 63 63 63 67 66 65 64 64 63 63 67 70 73 72 74 73 66 62 60 58 56 53 54 57 57 57 58 60 60 63 68 72 74
Wind_Direction
296 302 309 308 304 311 10 210 225 227 231 260 267 262 244 240 231 244 250 248 272 246 252 256 257 257 252 252 269 282 252 279 275 257 261 269 268 264 261 265 246 230 242 238 246 243 226 225 229
301 306 306 301 298 57 254 221 232 243 271 297 258 239 258 243 235 240 260 274 283 257 251 251 256 262 266 271 280 286 287 288 284 273 275 269 269 274 265 264 288 278 277 247 250 246 221 223 225
293 300 309 153 96 232 226 210 232 249 280 275 260 252 259 289 235 246 247 261 264 262 248 249 259 268 276 283 287 287 285 289 285 276 275 267 281 279 270 276 289 300 301 290 242 254 241 223 219
289 160 111 92 199 234 241 235 254 284 273 259 247 267 256 263 268 263 261 258 257 260 260 265 270 275 279 281 282 281 284 284 285 278 270 283 284 282 283 288 297 298 297 291 289 278 258 229 218
113 143 77 188 233 233 246 247 256 283 260 294 273 273 228 258 258 260 260 259 261 264 267 272 274 278 280 283 285 284 281 277 277 280 283 288 288 286 282 286 291 293 296 296 289 295 278 249 244
115 67 53 243 271 283 269 253 253 258 282 279 264 266 242 252 262 261 262 264 266 270 273 275 278 283 286 286 290 290 285 284 284 283 286 286 285 287 288 283 285 290 290 291 292 297 289 288 291
119 82 225 242 276 282 281 263 259 267 278 282 273 291 299 258 281 274 275 270 270 275 278 280 285 284 280 284 288 290 288 287 288 285 284 285 285 286 289 289 286 282 283 285 289 289 292 290 279
125 114 213 154 303 290 306 300 292 297 308 298 265 264 296 301 309 292 290 292 292 288 284 283 285 285 283 285 288 286 287 289 290 291 292 291 291 290 290 290 292 288 289 286 286 290 290 288 271
97 93 257 244 218 299 337 304 326 298 303 294 284 282 295 301 307 302 299 293 288 284 284 289 292 295 295 299 287 288 289 292 292 293 293 294 293 294 294 293 295 296 294 294 293 289 286 283 282
100 184 239 294 297 289 309 311 315 305 306 301 295 296 298 302 304 301 296 294 296 296 298 296 299 303 301 301 291 286 287 291 292 292 292 291 292 294 298 302 300 297 298 295 294 292 289 286 282
87 83 64 35 26 28 6 349 342 332 319 341 341 2 331 338 337 326 319 314 317 299 302 303 300 307 317 328 327 313 313 313 309 308 306 302 297 296 297 299 301 304 304 305 305 299 296 287 285
77 69 78 76 72 73 78 61 36 61 50 49 46 47 37 36 35 33 32 21 12 360 345 327 326 330 334 337 332 327 322 312 308 304 297 295 291 288 293 296 295 295 297 297 298 302 305 307 307
66 65 66 58 52 49 55 31 40 20 9 12 359 6 359 357 350 349 353 348 347 343 339 328 319 316 315 312 306 303 300 296 294 292 291 290 289 290 291 290 291 292 291 290 290 291 294 297 305
52 41 47 51 33 31 23 19 11 2 359 356 350 349 339 332 330 328 326 323 317 315 314 307 303 301 300 300 300 300 298 294 294 293 293 292 290 287 286 286 286 286 286 287 289 288 288 290 292
43 52 59 30 18 356 1 3 353 344 355 353 338 335 330 328 327 327 325 316 315 311 307 305 305 304 302 300 296 295 295 295 294 293 292 291 292 291 289 288 288 289 291 290 289 287 287 287 289
45 19 28 334 342 344 349 350 343 340 341 334 317 308 312 317 318 316 316 311 308 305 305 306 306 303 303 301 299 300 297 295 297 298 297 298 298 297 296 295 293 291 289 288 286 286 286 285 283
350 335 325 323 328 328 330 342 342 334 338 332 333 332 326 314 303 307 310 305 299 300 306 305 301 296 295 292 291 293 296 297 300 300 300 299 298 296 295 293 291 289 288 286 282 281 281 281 281
323 334 330 330 320 314 325 338 342 354 350 344 333 337 333 318 319 317 299 301 304 310 312 312 311 308 307 304 304 303 305 304 306 304 300 304 302 301 300 299 297 294 291 288 286 284 282 279 275
310 320 316 321 320 312 316 324 323 333 335 327 327 327 326 325 323 324 317 312 312 311 311 310 310 309 306 304 304 303 303 302 301 300 297 297 296 295 294 295 294 295 294 291 287 284 280 279 277
307 305 314 320 323 317 310 310 308 320 336 325 314 318 319 317 316 317 318 316 313 312 312 311 309 306 303 302 299 299 298 297 297 298 296 295 294 295 296 295 293 293 293 292 290 286 283 280 276
299 297 297 319 317 320 299 310 326 328 329 325 317 315 313 314 314 314 314 315 317 316 315 314 313 309 304 302 301 299 298 299 299 300 299 297 297 298 299 298 296 293 290 288 284 282 281 278 275
294 289 288 301 313 309 309 296 299 307 313 311 304 312 314 313 310 310 309 311 313 311 311 309 312 308 303 301 299 298 297 296 297 297 297 296 296 297 298 297 297 294 292 289 285 283 281 278 277
300 296 296 296 293 303 301 301 287 288 301 309 307 307 307 308 306 306 308 309 311 311 313 310 309 307 303 302 301 300 298 298 299 300 299 299 301 302 301 300 298 295 291 288 285 283 281 278 276
308 306 306 310 306 309 295 308 318 286 282 298 314 310 307 308 309 305 303 305 308 312 314 312 311 307 304 303 302 300 298 298 299 300 301 301 304 303 299 297 294 290 288 287 285 283 280 278 277
303 303 302 302 303 312 301 318 323 309 279 302 310 312 310 315 311 305 309 312 312 313 314 313 310 307 304 301 301 300 299 298 302 302 302 305 305 300 298 296 293 286 290 292 290 287 286 283 278
310 311 314 310 306 304 300 307 324 323 311 315 319 318 315 321 320 320 318 316 314 316 316 314 311 309 308 306 304 303 302 301 302 305 307 306 301 297 293 289 290 289 290 294 291 288 287 283 277
313 315 314 312 308 307 312 315 331 315 314 314 314 312 317 316 312 316 317 316 317 318 315 312 312 310 308 306 305 305 304 306 308 310 309 304 300 295 289 289 287 283 289 291 288 286 283 280 278
306 308 310 310 310 309 311 312 327 322 311 307 306 301 304 305 311 314 317 316 318 317 313 312 310 309 309 308 307 309 310 311 313 310 305 302 298 291 287 283 284 287 289 288 287 286 285 283 280
312 313 313 310 311 308 311 315 321 314 305 305 307 308 308 310 313 315 316 314 313 311 309 309 310 311 310 309 310 313 314 314 311 306 303 300 295 290 286 286 287 288 288 288 288 288 287 287 286
304 311 313 309 309 305 306 312 324 318 315 315 310 304 308 309 310 313 311 308 309 310 309 310 311 311 312 312 314 314 315 316 311 306 304 300 297 292 289 289 290 289 289 289 289 289 288 287 285
Height
5817 5818 5819 5820 5825 5824 5825 5831 5826 5820 5819 5828 5823 5823 5821 5826 5827 5828 5825 5824 5825 5827 5828 5828 5828 5827 5826 5825 5828 5828 5827 5828 5828 5825 5824 5823 5821 5819 5821 5821 5816 5815 5816 5814 5817 5819 5815 5818 5823
5813 5814 5815 5818 5819 5821 5828 5823 5823 5816 5821 5824 5822 5821 5817 5815 5822 5823 5824 5823 5822 5825 5825 5825 5824 5824 5822 5823 5824 5824 5823 5823 5824 5822 5820 5819 5818 5817 5814 5814 5806 5814 5809 5817 5818 5808 5800 5810 5814
5810 5810 5813 5814 5817 5821 5819 5817 5815 5814 5821 5819 5818 5815 5816 5815 5818 5819 5820 5821 5821 5819 5820 5822 5820 5820 5819 5820 5819 5818 5818 5817 5818 5816 5816 5815 5812 5812 5808 5808 5807 5810 5813 5815 5812 5812 5803 5803 5804
5807 5808 5812 5813 5820 5814 5814 5813 5816 5814 5816 5817 5816 5816 5812 5812 5815 5817 5817 5818 5817 5817 5815 5818 5818 5817 5816 5814 5814 5812 5812 5812 5812 5811 5811 5810 5806 5807 5803 5804 5804 5805 5809 5806 5800 5801 5803 5800 5799
5806 5808 5809 5817 5811 5812 5813 5814 5816 5816 5814 5814 5813 5810 5797 5811 5811 5812 5812 5811 5812 5811 5811 5812 5811 5810 5809 5808 5807 5806 5807 5808 5808 5806 5804 5802 5798 5801 5803 5800 5799 5801 5802 5795 5796 5796 5796 5785 5799
5805 5806 5814 5816 5812 5810 5812 5813 5814 5813 5812 5812 5804 5799 5806 5807 5808 5807 5808 5808 5807 5807 5807 5806 5805 5805 5805 5803 5802 5801 5800 5800 5801 5801 5798 5796 5794 5793 5795 5796 5795 5797 5796 5794 5789 5790 5788 5786 5796
5802 5808 5817 5814 5811 5809 5808 5809 5810 5808 5809 5810 5803 5799 5800 5806 5807 5804 5805 5804 5803 5802 5801 5801 5802 5800 5799 5798 5797 5795 5795 5795 5794 5794 5793 5790 5788 5786 5787 5788 5788 5789 5791 5791 5787 5788 5787 5786 5790
5802 5810 5813 5815 5816 5809 5806 5808 5808 5806 5807 5808 5806 5800 5801 5798 5801 5800 5801 5800 5799 5798 5797 5795 5793 5795 5794 5793 5791 5790 5790 5789 5788 5788 5786 5785 5782 5779 5780 5779 5777 5777 5778 5778 5780 5777 5778 5778 5781
5806 5810 5813 5808 5812 5809 5806 5806 5805 5805 5803 5804 5805 5801 5799 5799 5798 5798 5796 5795 5794 5793 5792 5791 5789 5788 5788 5786 5787 5786 5785 5784 5783 5781 5780 5778 5777 5772 5772 5773 5770 5768 5768 5766 5766 5768 5770 5769 5770
5807 5810 5808 5809 5808 5807 5805 5805 5803 5803 5801 5799 5800 5799 5797 5795 5794 5793 5792 5790 5790 5789 5788 5786 5785 5784 5783 5780 5779 5780 5778 5778 5777 5776 5775 5773 5772 5769 5765 5764 5765 5763 5760 5759 5757 5757 5758 5757 5757
5807 5807 5808 5807 5807 5806 5805 5803 5802 5801 5800 5799 5797 5796 5796 5795 5793 5791 5789 5787 5785 5784 5783 5782 5781 5780 5779 5777 5776 5774 5774 5773 5772 5771 5771 5769 5767 5766 5764 5762 5761 5760 5757 5755 5754 5752 5750 5749 5749
5809 5809 5809 5809 5809 5808 5807 5806 5804 5803 5802 5800 5799 5797 5796 5794 5793 5791 5789 5787 5786 5784 5784 5783 5782 5780 5779 5777 5775 5774 5773 5773 5772 5770 5769 5767 5765 5763 5761 5759 5757 5756 5755 5753 5748 5747 5744 5740 5738
5812 5812 5811 5811 5810 5809 5808 5808 5806 5804 5802 5801 5800 5798 5796 5795 5792 5791 5789 5787 5786 5784 5784 5783 5781 5779 5777 5774 5772 5770 5769 5768 5767 5765 5762 5761 5759 5756 5754 5751 5749 5747 5747 5747 5745 5742 5740 5736 5731
5815 5814 5813 5813 5812 5811 5810 5808 5806 5805 5803 5801 5799 5798 5795 5793 5791 5789 5787 5785 5783 5782 5780 5779 5777 5775 5773 5771 5769 5767 5765 5762 5760 5758 5756 5753 5751 5748 5746 5743 5743 5741 5738 5736 5735 5733 5731 5729 5727
5817 5817 5814 5813 5812 5811 5810 5809 5807 5805 5803 5801 5799 5797 5794 5792 5790 5787 5786 5783 5781 5779 5777 5775 5772 5770 5767 5765 5762 5760 5758 5755 5752 5750 5747 5745 5743 5739 5737 5734 5731 5729 5729 5727 5725 5723 5720 5718 5716
5816 5816 5816 5813 5812 5811 5811 5809 5805 5803 5801 5799 5797 5795 5793 5790 5788 5785 5783 5780 5778 5776 5774 5772 5768 5767 5763 5760 5756 5753 5751 5746 5744 5742 5740 5736 5733 5732 5729 5726 5723 5719 5716 5715 5713 5711 5710 5709 5708
5817 5818 5816 5814 5811 5810 5809 5808 5805 5803 5799 5796 5794 5791 5788 5786 5784 5783 5780 5778 5775 5772 5769 5766 5763 5759 5757 5753 5749 5746 5743 5739 5737 5734 5732 5728 5723 5719 5716 5713 5711 5707 5704 5701 5699 5698 5697 5696 5695
5818 5816 5814 5812 5811 5808 5807 5806 5804 5802 5798 5794 5791 5788 5786 5784 5781 5779 5777 5774 5771 5769 5766 5762 5760 5756 5752 5748 5743 5739 5736 5731 5728 5724 5719 5719 5712 5707 5702 5699 5697 5694 5691 5688 5685 5682 5681 5681 5681
5818 5816 5815 5812 5811 5808 5806 5805 5802 5799 5796 5794 5791 5789 5786 5783 5780 5777 5774 5771 5769 5765 5762 5758 5753 5750 5746 5740 5736 5731 5726 5722 5717 5713 5706 5704 5699 5696 5691 5684 5680 5676 5674 5672 5670 5668 5666 5663 5662
5816 5815 5813 5811 5809 5807 5803 5802 5800 5797 5795 5792 5789 5787 5784 5780 5777 5774 5770 5768 5764 5760 5755 5751 5747 5741 5737 5732 5725 5721 5715 5711 5705 5701 5695 5691 5687 5682 5677 5671 5666 5659 5655 5650 5647 5646 5646 5645 5644
5813 5812 5810 5808 5806 5803 5801 5797 5794 5794 5793 5790 5787 5784 5780 5777 5773 5770 5767 5763 5759 5755 5750 5744 5740 5734 5727 5723 5716 5710 5705 5698 5692 5686 5680 5675 5669 5665 5659 5653 5647 5641 5636 5632 5628 5625 5622 5623 5624
5813 5810 5808 5806 5804 5803 5800 5799 5793 5787 5788 5786 5783 5779 5776 5772 5769 5765 5761 5757 5752 5749 5744 5738 5731 5724 5717 5709 5705 5699 5692 5687 5680 5672 5664 5657 5652 5646 5639 5633 5627 5620 5615 5610 5606 5604 5602 5600 5601
5811 5807 5805 5805 5802 5801 5798 5797 5793 5790 5785 5779 5776 5774 5772 5767 5764 5759 5754 5749 5745 5739 5734 5728 5720 5713 5705 5697 5691 5686 5679 5672 5663 5655 5647 5638 5630 5624 5617 5612 5606 5601 5594 5590 5586 5584 5583 5581 5580
5807 5805 5803 5800 5799 5798 5794 5793 5795 5786 5781 5775 5771 5767 5762 5759 5756 5752 5747 5742 5736 5728 5722 5715 5708 5701 5694 5685 5677 5670 5665 5657 5649 5642 5632 5622 5614 5607 5598 5593 5588 5583 5578 5573 5569 5565 5564 5563 5561
5804 5801 5800 5798 5795 5794 5785 5785 5784 5782 5774 5772 5767 5759 5752 5750 5746 5741 5735 5729 5722 5716 5709 5700 5691 5686 5680 5673 5666 5656 5650 5642 5633 5623 5614 5605 5598 5591 5582 5576 5570 5565 5560 5556 5551 5548 5545 5543 5542
5800 5796 5794 5790 5788 5788 5788 5783 5783 5773 5766 5761 5753 5747 5738 5733 5725 5723 5718 5712 5707 5702 5695 5687 5678 5669 5662 5654 5647 5640 5633 5624 5616 5607 5596 5588 5579 5571 5566 5560 5554 5549 5543 5538 5533 5530 5528 5524 5523
5795 5792 5789 5783 5781 5776 5777 5775 5777 5770 5764 5752 5747 5737 5726 5723 5717 5713 5707 5699 5692 5688 5680 5670 5665 5657 5649 5640 5632 5623 5614 5605 5596 5587 5578 5570 5562 5553 5547 5542 5538 5532 5527 5521 5516 5512 5510 5508 5506
5791 5787 5783 5776 5772 5766 5767 5767 5768 5763 5757 5751 5743 5734 5726 5717 5711 5704 5696 5687 5680 5674 5665 5658 5651 5643 5635 5625 5616 5608 5597 5586 5577 5567 5558 5551 5544 5536 5529 5524 5518 5513 5509 5503 5498 5494 5491 5489 5489
5783 5781 5776 5771 5767 5758 5754 5757 5757 5753 5747 5740 5731 5723 5716 5706 5698 5692 5684 5674 5669 5663 5655 5646 5636 5629 5621 5611 5601 5591 5580 5569 5559 5548 5540 5533 5525 5518 5512 5507 5501 5496 5490 5485 5480 5476 5472 5469 5467
5780 5777 5772 5762 5759 5756 5749 5748 5750 5742 5733 5726 5720 5711 5706 5699 5690 5683 5675 5664 5659 5650 5640 5631 5621 5612 5603 5594 5584 5574 5563 5552 5543 5533 5523 5515 5509 5502 5496 5491 5485 5479 5473 5467 5462 5458 5453 5448 5444